Regional Weather Roundup
Issued by NWS Mt. Holly, NJ

Home | Current Version | Previous Version | Text Only | Print | Product List | Glossary On
Versions: 1 2 3 4 5 6 7 8 9 10 11 12 13 14 15 16 17 18 19 20 21 22 23 24 25 26 27 28
000
ASUS41 KPHI 070912
RWRPHI

REGIONAL WEATHER ROUNDUP
NATIONAL WEATHER SERVICE MOUNT HOLLY NJ
400 AM EST WED DEC 07 2016

NOTE:  "FAIR" INDICATES FEW OR NO CLOUDS BELOW 12,000 FEET WITH NO
SIGNIFICANT WEATHER AND/OR OBSTRUCTIONS TO VISIBILITY.

 * = STATION DOES NOT REPORT PRECIPITATION (E.G. RAIN, SNOW, ETC.)
        OR FOG.

NJZ015>026-071000-
SOUTHERN NEW JERSEY

CITY           SKY/WX    TMP DP  RH WIND       PRES   REMARKS
POMONA         CLOUDY    47  45  93 N7        29.82S
WILDWOOD*      CLOUDY    46  45  96 N6        29.82F
MILLVILLE      CLOUDY    43  43 100 N12       29.84S
WRIGHTSTOWN    CLOUDY    42  41  96 N9        29.83R
MOUNT HOLLY    CLOUDY    41  40  96 N7        29.86S
TRENTON        CLOUDY    39  36  89 N8        29.88R WCI  33

$$
NJZ001>014-071000-
NORTHERN NEW JERSEY

CITY           SKY/WX    TMP DP  RH WIND       PRES   REMARKS
SUSSEX         CLOUDY    34  33  96 CALM      29.90S FOG
ANDOVER*         N/A     33  32  96 NE5       29.89S WCI  29
MORRISTOWN     CLOUDY    37  37 100 N3        29.91R
NEWARK         CLOUDY    39  38  96 N13       29.90R FOG     WCI  31
TETERBORO      DRIZZLE   39  36  89 N6        29.91R FOG     WCI  35
CALDWELL       CLOUDY    37  36  96 NE5       29.91R WCI  33
SOMERVILLE     CLOUDY    39  36  89 CALM      29.88R
ALLAIRE*       LGT RAIN  44  43  96 NE8       29.86R FOG
TOMS RIVER*    LGT RAIN  45  44  97 NE10      29.85S

$$
PAZ043-044-047-054-055-060>062-066>071-071000-
EASTERN PENNSYLVANIA

CITY           SKY/WX    TMP DP  RH WIND       PRES   REMARKS
PHILADELPHIA   LGT RAIN  41  39  93 N9        29.88R
NORTH PHILA    CLOUDY    41  39  93 N9        29.89R
BLUE BELL*     CLOUDY    37  36  93 CALM      29.87S
DOYLESTOWN     CLOUDY    40  38  93 NE5       29.87R
QUAKERTOWN*    CLOUDY    36  36 100 CALM      29.89R
PERKASIE*      CLOUDY    36  36 100 N6        29.88S WCI  31
POTTSTOWN      CLOUDY    37  36  96 NW3       29.90R FOG
LANCASTER      LGT RAIN  38  38 100 NW7       29.91R FOG     WCI  33
COATESVILLE    CLOUDY    37  37 100 N6        29.89R FOG     WCI  33
READING        CLOUDY    37  35  92 NW5       29.90R WCI  33
ALLENTOWN      CLOUDY    38  35  89 E5        29.89S FOG     WCI  34
MOUNT POCONO   CLOUDY    32  31  96 E6        29.83F WCI  26
HAZLETON       DRIZZLE   34  32  93 CALM      29.89R
LEHIGHTON        N/A     34  34 100 CALM      29.91R FOG
WILKES BARRE   FOG       35  34  96 CALM      29.87S VSB 1/2

$$
DEZALL-MDZ008-012-015-019-020-071000-
DELAWARE AND EASTERN MARYLAND

CITY           SKY/WX    TMP DP  RH WIND       PRES   REMARKS
WILMINGTON     CLOUDY    41  40  96 N9        29.88S
DOVER          LGT RAIN  43  43 100 NW13      29.86R
GEORGETOWN     CLOUDY    46  44  93 NW8       29.84R
EASTON         CLOUDY    45  42  89 N7        29.93R
ABERDEEN       CLOUDY    42  41  96 VRB5      29.91R
PATUXENT       CLOUDY    45  43  93 N14       29.88R
OCEAN CITY     CLOUDY    48  48 100 NW15      29.80S
WALLOPS ISLAND CLOUDY    47  47 100 NW13      29.82R
CAMBRIDGE      CLOUDY    43  41  93 NW12      29.88R
SALISBURY      CLOUDY    45  44  97 NW13      29.83R

$$
PAZ001-021-NYZ056-072-MDZ011-DCZ001-071000-
OTHER NEARBY LOCATIONS

CITY           SKY/WX    TMP DP  RH WIND       PRES   REMARKS
HARRISBURG     CLOUDY    39  39 100 NW5       29.92R FOG
STATE COLLEGE  CLOUDY    35  35  99 CALM      29.88R FOG
WILLIAMSPORT   CLOUDY    38  34  85 CALM      29.90R FOG
BINGHAMTON     LGT SNOW  31  31 100 SE5       29.83S VSB 3/4 WCI  26
NEW YORK CITY  LGT RAIN  40  38  93 VRB7      29.92R FOG
BALTIMORE      CLOUDY    42  41  96 NW8       29.90R
WASHINGTON DC  CLOUDY    43  41  93 NW12      29.93R

$$




USA.gov is the U.S. government's official web portal to all federal, state and local government web resources and services.